Regional Weather Roundup
Issued by NWS State College, PA

Home | Current Version | Previous Version | Text Only | Print | Product List | Glossary Off
Versions: 1 2 3 4 5 6 7 8 9 10 11 12 13 14 15 16 17 18 19 20 21 22 23 24 25 26 27 28 29 30 31 32 33 34 35 36 37 38 39 40 41 42 43 44 45 46 47 48 49 50

000
ASUS41 KCTP 220203
RWRCTP

REGIONAL WEATHER ROUNDUP
NATIONAL WEATHER SERVICE STATE COLLEGE PA
1000 PM EDT THU AUG 21 2014

Note: "fair" indicates few or no clouds below 12,000 feet with no
significant weather and/or obstructions to visibility.

* = STATION THAT DOES NOT REPORT PRECIPITATION /E.G. RAIN...SNOW...ETC/
    THUNDER OR FOG.

PAZ002>004-007>009-013>016-020>023-029>032-220300-
WESTERN PENNSYLVANIA

CITY           SKY/WX    TMP DP  RH WIND       PRES   REMARKS
ERIE           MOCLDY    73  67  81 CALM      29.99S
MEADVILLE      PTCLDY    69  66  90 S3        30.03R
FRANKLIN*      MOCLDY    66  64  94 S5        30.05R
NEW CASTLE     NOT AVBL
BEAVER COUNTY  NOT AVBL
BUTLER*        PTCLDY    70  64  83 SW5       30.06R
PITTSBURGH INT MOCLDY    71  67  87 SW7       30.04R
PITTSBURGH     CLOUDY    71  65  81 SW7       30.05R
INDIANA*       CLOUDY    72  68  88 SW7       30.09R
LATROBE        CLOUDY    72  72 100 S9        30.06R
WASHINGTON CO* PTCLDY    66  64  94 CALM      30.06R
$$

PAZ004>006-010>012-017>019-024>028-033>037-041-042-045-046-049>053-220300-
CENTRAL PENNSYLVANIA

CITY           SKY/WX    TMP DP  RH WIND       PRES   REMARKS
BRADFORD       MOCLDY    65  64  97 CALM      30.06R FOG
DUBOIS         MOCLDY    66  65  96 SW6       30.05R FOG
CLEARFIELD     CLOUDY    66  66 100 S5        30.05R FOG
JOHNSTOWN      CLOUDY    68  64  87 W7        30.09R
ALTOONA        CLOUDY    71  65  81 W7        30.06S
STATE COLLEGE  MOCLDY    65  65  99 CALM      30.04R FOG
WILLIAMSPORT   MOCLDY    71  68  90 CALM      29.98R
SELINSGROVE    NOT AVBL
FT INDIANTOWN  PTCLDY    68  68 100 CALM      30.01R
CAPITAL CITY   MOCLDY    67  66  97 W3        30.00R
HARRISBURG     MOCLDY    71  68  90 CALM      29.99R
YORK           MOCLDY    67  65  93 CALM      30.00R
$$

PAZ038>040-043-044-047-048-054-055-060>062-067>071-220300-
EASTERN PENNSYLVANIA

CITY           SKY/WX    TMP DP  RH WIND       PRES   REMARKS
SCRANTON       CLOUDY    74  64  71 NE5       30.02R
MOUNT POCONO   CLOUDY    66  62  87 SE6       30.06R
ALLENTOWN      TSTM      71  66  84 S6        30.00R
QUAKERTOWN*    CLOUDY    72  72 100 CALM      30.02S
READING        CLOUDY    76  72  87 SW3       29.99R
LANCASTER      MOCLDY    72  68  87 CALM      30.01R
COATESVILLE    CLOUDY    72  72 100 SE3       30.03S
POTTSTOWN      CLOUDY    74  68  81 S7        30.02S
BLUE BELL      CLOUDY    73  68  83 SE3       30.00S
DOYLESTOWN     TSTM      71  66  84 SW5       30.01R
WILLOW GROVE   NOT AVBL
NORTH PHILA    CLOUDY    75  64  68 VRB3      30.02S
PHILADELPHIA   CLOUDY    74  67  78 S6        30.01S
$$


USA.gov is the U.S. government's official web portal to all federal, state and local government web resources and services.